Date String (YYYY-MM-DD hh:mm:ss) UTC,Instrument flags,Ambient pressure (hPa),Sample flow (lpm),Bypass flow (lpm),Sample temperature (°C),Ambient temperature (°C),ASC tube jacket temperature (°C),LED temperature (°C),Box temperature (°C),Sample RH (%),Span deviation,Mass concentration (μg/m³),Mass concentration (μg/m³),Mass concentration (μg/m³)
DateTimeUTC,F1_M11,P_M11,Q1_M11,Q2_M11,T1_M11,T2_M11,T3_M11,T4_M11,T5_M11,U1_M11,ZSPAN_M11,X0_M11,X2_M11,X1_M11
2021-11-14 13:00:00,,0828.9,5.00,0.00,22.3,21.6,00.0,31.3,24.1,13.6,0000.0,0010.51,0002.27,0000.88
2021-11-14 13:01:00,,0829.0,5.02,0.00,22.3,21.6,00.0,31.3,24.1,13.6,0000.0,0010.90,0002.27,0000.88
2021-11-14 13:02:00,,0829.1,4.99,0.00,22.3,21.7,00.0,31.3,24.1,13.6,0000.0,0011.59,0002.32,0000.89
2021-11-14 13:03:00,,0828.9,5.01,0.00,22.3,21.7,00.0,31.3,24.1,13.6,0000.0,0011.30,0002.35,0000.90
2021-11-14 13:04:00,,0829.0,5.00,0.00,22.3,21.7,00.0,31.3,24.1,13.6,0000.0,0010.91,0002.32,0000.88
2021-11-14 13:05:00,,0829.1,5.00,0.00,22.3,21.7,00.0,31.3,24.2,13.6,0000.0,0010.32,0002.26,0000.87
2021-11-14 13:06:00,,0828.9,5.00,0.00,22.3,21.7,00.0,31.3,24.2,13.6,0000.0,0010.40,0002.22,0000.86
2021-11-14 13:07:00,,0828.9,5.00,0.00,22.4,21.7,00.0,31.3,24.2,13.5,0000.0,0010.68,0002.24,0000.85
2021-11-14 13:08:00,,0828.9,4.99,0.00,22.4,21.7,00.0,31.3,24.2,13.5,0000.0,0011.13,0002.24,0000.84
2021-11-14 13:09:00,,0829.0,5.00,0.00,22.4,21.8,00.0,31.3,24.2,13.5,0000.0,0010.15,0002.21,0000.84
2021-11-14 13:10:00,,0828.9,5.01,0.00,22.4,21.8,00.0,31.3,24.2,13.5,0000.0,0009.62,0002.15,0000.83
2021-11-14 13:11:00,,0829.0,4.98,0.00,22.4,21.8,00.0,31.4,24.2,13.4,0000.0,0010.05,0002.08,0000.83
2021-11-14 13:12:00,,0829.1,5.01,0.00,22.4,21.8,00.0,31.4,24.3,13.4,0000.0,0010.05,0002.15,0000.83
2021-11-14 13:13:00,,0829.0,4.99,0.00,22.4,21.8,00.0,31.4,24.3,13.3,0000.0,0009.99,0002.15,0000.81
2021-11-14 13:14:00,,0828.9,5.01,0.00,22.5,21.8,00.0,31.4,24.3,13.3,0000.0,0009.98,0002.09,0000.80
2021-11-14 13:15:00,,0828.8,5.00,0.00,22.5,21.8,00.0,31.4,24.3,13.3,0000.0,0009.89,0002.06,0000.80
2021-11-14 13:16:00,,0829.3,4.99,0.00,22.5,21.8,00.0,31.4,24.3,13.2,0000.0,0010.89,0002.15,0000.80
2021-11-14 13:17:00,,0829.4,5.01,0.00,22.5,21.8,00.0,31.4,24.3,13.2,0000.0,0010.53,0002.09,0000.80
2021-11-14 13:18:00,,0828.9,4.99,0.00,22.5,21.8,00.0,31.4,24.3,13.2,0000.0,0010.63,0002.15,0000.80
2021-11-14 13:19:00,,0829.0,5.02,0.00,22.5,21.8,00.0,31.4,24.3,13.1,0000.0,0010.76,0002.18,0000.80
2021-11-14 13:20:00,,0829.0,4.99,0.00,22.5,21.9,00.0,31.5,24.4,13.1,0000.0,0010.84,0002.19,0000.79
2021-11-14 13:21:00,,0829.0,5.01,0.00,22.5,21.9,00.0,31.5,24.4,13.1,0000.0,0011.74,0002.26,0000.79
2021-11-14 13:22:00,,0829.1,4.99,0.00,22.6,21.9,00.0,31.5,24.4,13.1,0000.0,0011.31,0002.32,0000.78
2021-11-14 13:23:00,,0829.0,5.00,0.00,22.6,21.9,00.0,31.5,24.4,13.1,0000.0,0010.80,0002.26,0000.78
2021-11-14 13:24:00,,0828.8,4.99,0.00,22.6,21.9,00.0,31.5,24.4,13.1,0000.0,0010.15,0002.20,0000.79
2021-11-14 13:25:00,,0829.0,5.01,0.00,22.6,21.9,00.0,31.5,24.4,13.1,0000.0,0010.22,0002.20,0000.79
2021-11-14 13:26:00,,0828.9,4.99,0.00,22.6,21.9,00.0,31.5,24.4,13.1,0000.0,0010.09,0002.22,0000.79
2021-11-14 13:27:00,,0828.9,5.01,0.00,22.6,21.9,00.0,31.5,24.4,13.0,0000.0,0009.08,0002.18,0000.78
2021-11-14 13:28:00,,0828.9,4.99,0.00,22.6,21.9,00.0,31.5,24.4,13.1,0000.0,0009.08,0002.29,0000.79
2021-11-14 13:29:00,,0829.0,5.01,0.00,22.6,21.9,00.0,31.5,24.4,13.1,0000.0,0008.93,0002.23,0000.79
2021-11-14 13:30:00,,0829.0,5.00,0.00,22.6,21.9,00.0,31.5,24.4,13.0,0000.0,0008.46,0002.22,0000.80
2021-11-14 13:31:00,,0829.1,5.00,0.00,22.6,21.9,00.0,31.6,24.5,13.0,0000.0,0008.61,0002.27,0000.80
2021-11-14 13:32:00,,0829.1,5.00,0.00,22.6,21.9,00.0,31.6,24.5,13.0,0000.0,0008.27,0002.27,0000.81
2021-11-14 13:33:00,,0829.1,5.00,0.00,22.6,21.9,00.0,31.6,24.5,13.0,0000.0,0008.28,0002.25,0000.82
2021-11-14 13:34:00,,0829.2,5.00,0.00,22.6,21.9,00.0,31.6,24.5,13.0,0000.0,0008.26,0002.22,0000.83
2021-11-14 13:35:00,,0829.0,5.01,0.00,22.6,21.9,00.0,31.6,24.5,13.0,0000.0,0008.71,0002.26,0000.83
2021-11-14 13:36:00,,0829.0,4.99,0.00,22.6,21.9,00.0,31.6,24.5,13.1,0000.0,0008.75,0002.27,0000.84
2021-11-14 13:37:00,,0828.9,5.00,0.00,22.7,21.9,00.0,31.6,24.5,13.2,0000.0,0008.74,0002.20,0000.84
2021-11-14 13:38:00,,0829.0,5.01,0.00,22.7,21.9,00.0,31.6,24.5,13.2,0000.0,0008.64,0002.18,0000.85
2021-11-14 13:39:00,,0829.0,4.99,0.00,22.7,21.9,00.0,31.6,24.5,13.2,0000.0,0008.16,0002.10,0000.86
2021-11-14 13:40:00,,0829.0,5.01,0.00,22.7,21.9,00.0,31.6,24.5,13.2,0000.0,0007.93,0002.10,0000.86
2021-11-14 13:41:00,,0829.0,4.99,0.00,22.7,21.9,00.0,31.6,24.5,13.2,0000.0,0008.02,0002.18,0000.86
2021-11-14 13:42:00,,0829.1,5.02,0.00,22.7,21.9,00.0,31.6,24.5,13.2,0000.0,0008.21,0002.13,0000.86
2021-11-14 13:43:00,,0829.2,5.02,0.00,22.7,21.9,00.0,31.6,24.5,13.2,0000.0,0008.50,0002.08,0000.86
2021-11-14 13:44:00,,0829.2,4.99,0.00,22.7,21.9,00.0,31.6,24.5,13.1,0000.0,0009.20,0002.06,0000.85
2021-11-14 13:45:00,,0829.1,5.01,0.00,22.7,21.9,00.0,31.7,24.5,13.1,0000.0,0010.31,0002.11,0000.85
2021-11-14 13:46:00,,0829.1,4.99,0.00,22.7,21.9,00.0,31.7,24.5,13.2,0000.0,0011.63,0002.15,0000.86
2021-11-14 13:47:00,,0829.2,5.02,0.00,22.7,21.9,00.0,31.7,24.5,13.2,0000.0,0012.23,0002.14,0000.86
2021-11-14 13:48:00,,0829.2,4.99,0.00,22.7,21.9,00.0,31.7,24.5,13.2,0000.0,0012.69,0002.21,0000.87
2021-11-14 13:49:00,,0829.2,5.01,0.00,22.7,21.9,00.0,31.7,24.5,13.2,0000.0,0012.88,0002.27,0000.88
2021-11-14 13:50:00,,0829.1,5.00,0.00,22.7,21.9,00.0,31.7,24.5,13.2,0000.0,0012.96,0002.26,0000.87
2021-11-14 13:51:00,,0829.1,5.00,0.00,22.7,21.9,00.0,31.7,24.5,13.1,0000.0,0013.10,0002.29,0000.88
2021-11-14 13:52:00,,0829.2,5.01,0.00,22.7,21.9,00.0,31.7,24.5,13.1,0000.0,0013.03,0002.27,0000.87
2021-11-14 13:53:00,,0829.0,5.00,0.00,22.7,21.9,00.0,31.7,24.5,13.1,0000.0,0013.60,0002.28,0000.87
2021-11-14 13:54:00,,0828.8,5.00,0.00,22.7,21.9,00.0,31.7,24.5,13.0,0000.0,0013.31,0002.39,0000.88
2021-11-14 13:55:00,,0828.9,5.01,0.00,22.7,22.0,00.0,31.7,24.5,12.9,0000.0,0013.29,0002.49,0000.89
2021-11-14 13:56:00,,0829.1,4.99,0.00,22.7,21.9,00.0,31.7,24.5,12.9,0000.0,0012.41,0002.43,0000.90
2021-11-14 13:57:00,,0829.1,5.00,0.00,22.7,22.0,00.0,31.7,24.6,12.9,0000.0,0011.03,0002.37,0000.90
2021-11-14 13:58:00,,0829.0,5.01,0.00,22.7,22.0,00.0,31.7,24.6,13.0,0000.0,0009.96,0002.35,0000.90
2021-11-14 13:59:00,,0828.9,5.00,0.00,22.7,22.0,00.0,31.7,24.6,13.1,0000.0,0009.81,0002.35,0000.90
